CAPE
0 0 0 0 0 0 0 0 0 0 0 0 0 0 0 0 0 0 0 0 0 0 0 0 0 0 0 0 0 0 0 0 0 0 0 0 0 0 0 0 0 0 0 0
0 0 0 0 0 0 0 0 0 0 0 0 0 0 0 0 0 0 0 0 0 0 0 0 0 0 0 0 0 0 0 0 0 0 0 0 0 0 0 0 0 0 0 0
0 0 0 0 0 0 0 0 0 0 0 0 0 0 0 0 0 0 0 0 0 0 0 0 0 0 0 0 0 0 0 0 0 0 0 0 0 0 0 0 0 0 0 0
0 0 0 0 0 0 0 0 0 0 0 0 0 0 0 0 0 0 0 0 0 0 0 0 0 0 0 0 0 0 0 0 0 0 0 0 0 0 0 0 0 0 0 0
0 0 0 0 0 0 0 0 0 0 0 0 0 0 0 0 0 0 0 0 0 0 0 0 0 0 0 0 0 0 0 0 0 0 0 0 0 0 0 0 0 0 0 0
0 0 0 0 0 0 0 0 0 0 0 0 0 0 0 0 0 0 0 0 0 0 0 0 0 0 0 0 0 0 0 0 0 0 0 0 0 0 0 0 0 0 0 0
0 0 0 0 0 0 0 0 0 0 0 0 0 0 0 0 0 0 0 0 0 0 0 0 0 0 0 0 0 0 0 0 0 0 0 0 0 0 0 0 0 0 0 0
0 0 0 0 0 0 0 0 0 0 0 0 0 0 0 0 0 0 0 0 0 0 0 0 0 0 0 0 0 0 0 0 0 0 0 0 0 0 0 0 0 0 0 0
0 0 0 0 0 0 0 0 0 0 0 0 0 0 0 0 0 0 0 0 0 0 0 0 0 0 0 0 0 0 0 0 0 0 0 0 0 0 0 0 0 0 0 0
0 0 0 0 0 0 0 0 0 0 0 0 0 0 0 0 0 0 0 0 0 0 0 0 0 0 0 0 0 0 0 0 0 0 0 0 0 0 0 0 0 0 0 0
0 0 0 0 0 0 0 0 0 0 0 0 0 0 0 0 0 0 0 0 0 0 0 0 0 0 0 0 0 0 0 0 0 0 0 0 0 0 0 0 0 0 0 0
0 0 0 0 0 0 0 0 0 0 0 0 0 0 0 0 0 0 0 0 0 0 0 0 0 0 0 0 0 0 0 0 0 0 0 0 0 0 0 0 0 0 0 0
0 0 0 0 0 0 0 0 0 0 0 0 0 0 0 0 0 0 0 0 0 0 0 0 0 0 0 0 0 0 0 0 0 0 0 0 0 0 0 0 0 0 0 0
0 0 0 0 0 0 0 0 0 0 0 0 0 0 0 0 0 0 0 0 0 0 0 0 0 0 0 0 0 0 0 0 0 0 0 0 0 0 0 0 0 0 0 0
0 0 0 0 0 0 0 0 0 0 0 0 0 0 0 0 0 0 0 0 0 0 0 0 0 0 0 0 0 0 0 0 0 0 0 0 0 0 0 0 0 0 0 0
0 0 0 0 0 0 0 0 0 0 0 0 0 0 0 0 0 0 0 0 0 0 0 0 0 0 0 0 0 0 0 0 0 0 0 0 0 0 0 0 0 0 0 0
0 0 0 0 0 0 0 0 0 0 0 0 0 0 0 0 0 0 0 0 0 0 0 0 0 0 0 0 0 0 0 0 0 0 0 0 0 0 0 0 0 0 0 0
0 0 0 0 0 0 0 0 0 0 0 0 0 0 0 0 0 0 0 0 0 0 0 0 0 0 0 0 0 0 0 0 0 0 0 0 0 0 0 0 0 0 0 0
0 0 0 0 0 0 0 0 0 0 0 0 0 0 0 0 0 0 0 0 0 0 0 0 0 0 0 0 0 0 0 0 0 0 0 0 0 0 0 0 0 0 0 0
0 0 0 0 0 0 0 0 0 0 0 0 0 0 0 0 0 0 0 0 0 0 0 0 0 0 0 0 0 0 0 0 0 0 0 0 0 0 0 0 0 0 0 0
0 0 0 0 0 0 0 0 0 0 0 0 0 0 0 0 0 0 0 0 0 0 0 0 0 0 0 0 0 0 0 0 0 0 0 0 0 0 0 0 0 0 0 0
0 0 0 0 0 0 0 0 0 0 0 0 0 0 0 0 0 0 0 0 0 0 0 0 0 0 0 0 0 0 0 0 0 0 0 0 0 0 0 0 0 0 0 0
0 0 0 0 0 0 0 0 0 0 0 0 0 0 0 0 0 0 0 0 0 0 0 0 0 0 0 0 0 0 0 0 0 0 0 0 0 0 0 0 0 0 0 0
0 0 0 0 0 0 0 0 0 0 0 0 0 0 0 0 0 0 0 0 0 0 0 0 0 0 0 0 0 0 0 0 0 0 0 0 0 0 0 0 0 0 0 0
0 0 0 0 0 0 0 0 0 0 0 0 0 0 0 0 0 0 0 0 0 0 0 0 0 0 0 0 0 0 0 0 0 0 0 0 0 0 0 0 0 0 0 0
0 0 0 0 0 0 0 0 0 0 0 0 0 0 0 0 0 0 0 0 0 0 0 0 0 0 0 0 0 0 0 0 0 0 0 0 0 0 0 0 0 0 0 0
0 0 0 0 0 0 0 0 0 0 0 0 0 0 0 0 0 0 0 0 0 0 0 0 0 0 0 0 0 0 0 0 0 0 0 0 0 0 0 0 0 0 0 0
CIN
0 0 0 0 0 0 0 0 0 0 0 0 0 0 0 0 0 0 0 0 0 0 0 0 0 0 0 0 0 0 0 0 0 0 0 0 0 0 0 0 0 0 0 0
0 0 0 0 0 0 0 0 0 0 0 0 0 0 0 0 0 0 0 0 0 0 0 0 0 0 0 0 0 0 0 0 0 0 0 0 0 0 0 0 0 0 0 0
0 0 0 0 0 0 0 0 0 0 0 0 0 0 0 0 0 0 0 0 0 0 0 0 0 0 0 0 0 0 0 0 0 0 0 0 0 0 0 0 0 0 0 0
0 0 0 0 0 0 0 0 0 0 0 0 0 0 0 0 0 0 0 0 0 0 0 0 0 0 0 0 0 0 0 0 0 0 0 0 0 0 0 0 0 0 0 0
0 0 0 0 0 0 0 0 0 0 0 0 0 0 0 0 0 0 0 0 0 0 0 0 0 0 0 0 0 0 0 0 0 0 0 0 0 0 0 0 0 0 0 0
0 0 0 0 0 0 0 0 0 0 0 0 0 0 0 0 0 0 0 0 0 0 0 0 0 0 0 0 0 0 0 0 0 0 0 0 0 0 0 0 0 0 0 0
0 0 0 0 0 0 0 0 0 0 0 0 0 0 0 0 0 0 0 0 0 0 0 0 0 0 0 0 0 0 0 0 0 0 0 0 0 0 0 0 0 0 0 0
0 0 0 0 0 0 0 0 0 0 0 0 0 0 0 0 0 0 0 0 0 0 0 0 0 0 0 0 0 0 0 0 0 0 0 0 0 0 0 0 0 0 0 0
0 0 0 0 0 0 0 0 0 0 0 0 0 0 0 0 0 0 0 0 0 0 0 0 0 0 0 0 0 0 0 0 0 0 0 0 0 0 0 0 0 0 0 0
0 0 0 0 0 0 0 0 0 0 0 0 0 0 0 0 0 0 0 0 0 0 0 0 0 0 0 0 0 0 0 0 0 0 0 0 0 0 0 0 0 0 0 0
0 0 0 0 0 0 0 0 0 0 0 0 0 0 0 0 0 0 0 0 0 0 0 0 0 0 0 0 0 0 0 0 0 0 0 0 0 0 0 0 0 0 0 0
0 0 0 0 0 0 0 0 0 0 0 0 0 0 0 0 0 0 0 0 0 0 0 0 0 0 0 0 0 0 0 0 0 0 0 0 0 0 0 0 0 0 0 0
0 0 0 0 0 0 0 0 0 0 0 0 0 0 0 0 0 0 0 0 0 0 0 0 0 0 0 0 0 0 0 0 0 0 0 0 0 0 0 0 0 0 0 0
0 0 0 0 0 0 0 0 0 0 0 0 0 0 0 0 0 0 0 0 0 0 0 0 0 0 0 0 0 0 0 0 0 0 0 0 0 0 0 0 0 0 0 0
0 0 0 0 0 0 0 0 0 0 0 0 0 0 0 0 0 0 0 0 0 0 0 0 0 0 0 0 0 0 0 0 0 0 0 0 0 0 0 0 0 0 0 0
0 0 0 0 0 0 0 0 0 0 0 0 0 0 0 0 0 0 0 0 0 0 0 0 0 0 0 0 0 0 0 0 0 0 0 0 0 0 0 0 0 0 0 0
0 0 0 0 0 0 0 0 0 0 0 0 0 0 0 0 0 0 0 0 0 0 0 0 0 0 0 0 0 0 0 0 0 0 0 0 0 0 0 0 0 0 0 0
0 0 0 0 0 0 0 0 0 0 0 0 0 0 0 0 0 0 0 0 0 0 0 0 0 0 0 0 0 0 0 0 0 0 0 0 0 0 0 0 0 0 0 0
0 0 0 0 0 0 0 0 0 0 0 0 0 0 0 0 0 0 0 0 0 0 0 0 0 0 0 0 0 0 0 0 0 0 0 0 0 0 0 0 0 0 0 0
0 0 0 0 0 0 0 0 0 0 0 0 0 0 0 0 0 0 0 0 0 0 0 0 0 0 0 0 0 0 0 0 0 0 0 0 0 0 0 0 0 0 0 0
0 0 0 0 0 0 0 0 0 0 0 0 0 0 0 0 0 0 0 0 0 0 0 0 0 0 0 0 0 0 0 0 0 0 0 0 0 0 0 0 0 0 0 0
0 0 0 0 0 0 0 0 0 0 0 0 0 0 0 0 0 0 0 0 0 0 0 0 0 0 0 0 0 0 0 0 0 0 0 0 0 0 0 0 0 0 0 0
0 0 0 0 0 0 0 0 0 0 0 0 0 0 0 0 0 0 0 0 0 0 0 0 0 0 0 0 0 0 0 0 0 0 0 0 0 0 0 0 0 0 0 0
0 0 0 0 0 0 0 0 0 0 0 0 0 0 0 0 0 0 0 0 0 0 0 0 0 0 0 0 0 0 0 0 0 0 0 0 0 0 0 0 0 0 0 0
0 0 0 0 0 0 0 0 0 0 0 0 0 0 0 0 0 0 0 0 0 0 0 0 0 0 0 0 0 0 0 0 0 0 0 0 0 0 0 0 0 0 0 0
0 0 0 0 0 0 0 0 0 0 0 0 0 0 0 0 0 0 0 0 0 0 0 0 0 0 0 0 0 0 0 0 0 0 0 0 0 0 0 0 0 0 0 0
0 0 0 0 0 0 0 0 0 0 0 0 0 0 0 0 0 0 0 0 0 0 0 0 0 0 0 0 0 0 0 0 0 0 0 0 0 0 0 0 0 0 0 0
Wind_Speed
23 25 26 21 17 4 13 19 22 19 17 23 21 22 21 19 18 17 17 16 17 16 15 16 16 16 16 15 14 15 15 16 20 18 18 17 17 17 16 21 23 22 25 29
22 23 25 24 15 5 12 21 19 18 18 23 22 20 19 19 19 19 18 18 18 16 14 16 14 14 15 16 16 14 13 17 20 20 19 18 18 18 18 19 21 25 29 29
21 22 21 19 8 4 13 15 21 19 18 18 17 15 19 20 19 19 18 17 16 15 15 17 14 15 15 15 14 14 15 16 18 22 21 19 20 19 18 21 26 28 27 31
19 20 17 19 13 3 17 18 21 18 19 25 15 12 13 15 18 16 15 16 16 14 15 14 15 14 14 15 14 15 16 20 19 21 22 23 24 25 24 25 26 32 33 31
17 18 18 14 7 6 21 17 16 16 17 15 6 13 12 12 13 12 13 15 11 13 14 15 13 13 14 16 15 16 18 21 22 25 24 27 29 27 26 26 26 27 28 29
18 17 16 14 4 15 15 14 14 12 14 9 8 13 12 11 10 14 15 13 13 14 14 14 14 14 14 14 16 17 19 22 25 29 28 30 32 25 23 23 20 23 27 24
20 18 16 13 6 12 13 12 12 13 13 10 10 11 11 10 13 14 14 14 15 13 11 13 15 17 17 18 20 18 19 22 24 29 28 32 22 20 21 21 21 20 21 21
23 20 17 16 9 5 14 11 12 13 13 11 12 10 11 11 14 15 14 16 14 11 14 18 21 23 22 22 22 22 20 19 23 26 26 29 25 19 20 22 25 19 22 24
25 23 19 16 14 6 14 15 12 13 11 11 10 10 10 13 14 15 16 15 13 14 17 19 23 25 23 23 22 20 19 18 20 22 28 30 24 18 18 21 32 19 21 26
26 25 22 18 14 9 13 14 13 12 12 13 11 13 11 12 13 15 14 13 15 16 18 20 21 23 20 23 22 21 20 20 21 23 27 27 21 18 18 29 30 22 26 30
27 25 23 21 16 11 13 14 12 13 13 13 15 15 13 13 12 14 12 13 16 15 17 18 19 19 19 20 19 19 18 20 22 21 25 31 17 18 24 24 22 25 28 30
27 26 24 22 18 14 13 13 11 10 13 13 14 14 14 15 14 12 9 15 13 11 15 14 15 18 17 19 22 16 22 18 22 19 23 22 19 21 19 21 24 26 29 32
26 25 24 22 20 14 13 11 7 11 12 13 12 12 15 16 16 13 10 11 10 10 11 12 14 17 14 17 18 18 17 16 22 23 23 21 18 20 22 23 25 27 28 30
26 25 23 21 16 11 11 12 12 11 11 9 11 15 14 19 17 14 12 9 10 10 11 12 13 14 11 16 17 17 18 17 21 22 23 21 21 20 20 22 23 25 26 28
25 23 22 18 12 9 7 9 13 12 13 9 9 11 17 18 15 13 11 8 9 10 10 11 10 13 13 13 15 17 15 17 19 24 20 21 20 16 17 21 24 26 29 32
24 22 18 13 11 12 14 17 16 14 13 11 10 14 16 16 14 13 12 12 12 10 7 7 9 12 13 12 13 17 14 16 17 21 17 18 15 16 19 22 24 26 28 30
23 21 18 16 14 14 17 17 15 15 13 13 14 15 16 17 17 16 13 14 12 10 9 9 11 13 12 15 15 17 17 17 17 13 14 18 17 19 18 20 23 26 28 29
22 19 16 11 7 9 16 16 13 11 11 14 14 17 14 14 14 15 18 15 14 16 12 13 13 13 15 16 16 16 16 17 15 13 18 19 17 18 20 21 25 28 30 30
20 16 12 15 18 18 15 13 11 11 14 15 17 13 12 10 14 15 16 16 14 17 16 16 16 16 16 16 13 13 15 15 16 15 17 18 18 19 21 24 25 27 29 31
20 19 20 20 18 11 12 16 18 18 20 18 18 14 15 12 13 15 14 16 16 16 17 17 19 20 16 15 12 13 14 15 13 14 17 17 17 19 22 23 25 26 29 31
24 22 21 16 14 14 18 19 18 19 19 19 17 15 13 13 14 14 14 15 17 17 17 17 20 22 17 15 15 13 13 10 11 13 16 15 16 21 23 24 26 28 29 29
24 16 12 14 17 18 20 20 19 19 19 15 13 12 12 12 13 14 15 17 17 19 17 19 22 18 14 15 16 16 15 14 12 12 14 18 21 22 23 26 28 28 28 27
19 18 19 19 21 21 23 21 19 18 15 13 10 10 11 12 13 14 15 16 18 17 20 21 19 14 14 15 15 16 17 16 17 17 17 18 20 22 25 28 28 28 28 27
23 22 25 24 23 28 22 17 16 15 12 5 4 10 13 12 12 13 15 16 16 20 21 21 16 12 12 16 18 18 19 19 20 20 21 23 26 26 26 26 28 27 24 24
24 21 30 27 21 17 14 11 9 10 3 2 6 12 14 13 14 14 15 16 19 18 19 17 9 11 13 16 18 18 22 21 21 22 25 26 27 27 27 26 25 24 22 23
23 24 24 21 20 16 12 10 7 5 3 5 12 14 15 15 13 16 16 17 19 18 15 10 9 11 13 17 20 21 21 21 22 24 25 26 27 27 26 25 24 24 23 23
26 28 23 20 19 17 13 10 7 6 5 13 13 14 15 13 17 17 15 17 15 13 12 10 8 12 16 20 21 21 22 24 24 25 26 26 27 26 25 25 27 25 24 23
Wind_Direction
240 225 211 233 236 271 250 223 210 230 242 213 229 226 231 244 255 268 276 285 286 291 296 299 303 306 312 322 328 326 325 325 310 317 325 326 325 324 322 313 315 318 317 313
245 238 228 224 240 251 259 225 230 243 243 231 239 244 257 266 274 280 292 298 298 303 313 309 316 319 318 317 320 328 331 322 316 319 324 325 320 321 321 321 319 312 311 315
248 244 241 242 249 250 267 258 233 246 255 262 269 282 274 276 291 297 301 305 305 308 307 307 319 320 323 328 330 334 333 325 318 314 320 327 321 322 322 317 312 312 310 314
256 246 248 242 248 235 257 258 251 264 261 240 283 302 311 302 296 307 311 306 304 312 312 315 315 321 326 332 336 334 330 320 321 319 319 318 316 314 314 311 311 309 313 312
264 253 246 247 244 254 245 264 276 271 277 272 314 295 305 325 322 332 323 320 333 327 325 324 328 334 330 329 334 331 330 321 322 318 320 318 314 315 315 315 316 314 315 316
263 260 251 246 195 242 263 276 290 303 296 302 319 307 316 326 346 324 326 331 332 328 332 347 349 346 345 344 335 329 327 323 320 313 321 319 313 320 321 323 327 325 320 326
258 261 258 251 169 244 271 286 297 291 296 308 311 328 325 336 325 330 327 330 328 337 5 2 349 346 343 340 333 333 327 324 322 316 321 313 327 338 333 329 331 334 334 333
252 257 260 256 243 204 268 290 295 295 300 306 313 324 331 337 330 328 330 328 336 355 337 326 321 320 322 325 327 326 328 327 323 320 320 321 326 333 330 330 329 335 333 334
250 252 257 262 260 238 265 277 297 299 312 312 326 330 331 323 321 322 325 334 340 334 326 323 315 315 320 321 327 334 333 332 325 324 319 318 332 340 346 342 323 340 339 334
249 250 254 259 263 259 269 281 285 298 308 315 320 317 322 329 326 324 328 329 326 327 321 318 318 317 326 320 322 327 328 327 320 320 319 322 331 340 348 326 328 340 337 333
247 250 252 256 262 260 271 281 285 296 307 314 315 320 324 325 325 324 336 334 327 326 321 323 324 324 326 326 329 332 329 327 325 329 322 321 343 343 326 333 339 337 336 336
245 249 252 254 258 260 274 282 292 311 313 321 323 332 333 328 329 332 340 333 343 348 338 337 340 331 335 331 326 336 326 331 329 325 326 333 334 334 340 338 335 337 337 337
243 247 251 253 256 260 270 283 291 307 314 325 330 330 327 327 328 338 337 337 350 347 355 351 341 332 340 332 330 333 336 333 325 327 331 328 333 335 336 338 339 340 341 341
239 243 248 252 255 259 271 277 284 301 322 333 330 322 325 315 318 331 338 357 352 358 353 348 346 340 350 337 336 333 334 337 331 326 328 332 330 333 339 342 344 344 345 345
235 239 245 249 250 256 275 288 286 296 304 344 351 335 317 311 323 334 346 3 355 350 355 353 353 351 346 349 343 330 335 332 329 327 335 332 334 340 344 342 342 343 343 343
228 234 239 237 243 253 266 271 282 291 298 320 327 320 304 308 327 336 338 335 340 353 19 5 0 354 346 346 338 340 341 338 335 333 341 342 348 346 343 341 343 345 345 345
222 227 232 241 249 260 261 274 283 279 290 302 306 312 307 302 303 312 334 328 342 352 356 351 345 345 344 338 328 339 342 343 343 351 351 341 341 339 345 345 345 345 346 346
216 221 229 237 239 256 269 287 292 287 287 295 300 304 314 315 310 309 311 320 330 333 343 346 344 347 337 329 332 338 340 343 341 338 339 341 345 345 344 346 346 345 344 343
205 204 212 243 254 258 265 281 295 298 286 284 292 298 312 329 321 318 317 319 326 328 327 329 334 332 327 334 341 344 346 342 341 340 342 344 343 344 344 343 344 342 341 341
188 216 237 244 250 259 268 275 270 275 281 288 289 301 299 312 316 317 322 324 323 328 329 337 328 323 322 326 332 339 342 343 342 339 336 338 339 341 342 342 341 340 339 339
216 228 239 240 245 262 264 265 267 273 280 286 288 289 293 308 307 312 322 327 330 330 332 331 333 333 337 351 351 352 348 339 342 337 339 342 339 338 339 339 338 338 338 339
217 216 225 238 252 260 259 261 268 275 277 289 290 289 298 307 314 315 321 318 324 325 338 334 332 339 348 351 355 358 358 355 346 337 336 338 337 337 337 337 336 338 340 342
207 232 236 245 252 254 253 251 264 272 276 283 286 293 307 314 316 319 319 318 318 331 326 327 332 349 352 353 357 353 353 353 350 347 345 341 342 342 340 338 339 339 340 341
227 229 231 245 252 250 257 260 269 277 278 259 277 302 312 322 315 320 319 321 326 322 322 325 339 355 7 358 355 353 351 350 348 347 344 342 340 339 340 339 338 340 342 345
229 235 241 244 255 264 257 258 268 277 224 233 298 311 316 316 319 320 324 324 319 321 325 335 354 359 358 360 354 351 347 344 343 344 342 340 339 338 338 340 342 344 344 344
235 243 246 245 244 247 249 249 236 243 190 295 309 307 309 309 317 315 313 317 317 328 333 350 357 359 0 355 348 342 343 345 342 340 341 341 342 342 343 345 345 345 345 344
238 240 248 245 246 238 241 236 230 183 236 288 302 305 304 321 315 313 317 317 328 340 347 347 356 349 346 342 342 342 339 338 337 338 339 340 342 344 345 344 345 347 347 346